Погода Соболево

Погода Соболево : погода сейчас, прогноз погоды и архив. Всё, что Вы хотите узнать о погоде Соболево!

Поиск расширенной информации на нашем сайте:

Другие новости

Новости СМИ2

Главная страница сайта

Новости сайта

02.10.2013

Напоминаем, что на нашем новом сайте вы можете получить высокодетализированные прогнозы погоды по пунктам России, СНГ и мира (включающие важные для авиации метеовеличины, такие как направление и скорость ветра, видимость, явления погоды, количество и форма облачности, нижняя и верхняя граница облачности), а также ознакомиться с разнообразными материалами по авиационной метеорологии и подборкой полезных ссылок на эту тему.

Сайт Метеоцентр.Азия посвящён разработке технологий оптимизации авиаметеорологического обслуживания, включая проектирование и перспективное создание нескольких автоматизированных авиаметеорологических систем:
- система выпуска высокодетальных прогностических карт явлений погоды для нижнего воздушного пространства по России и ближнему зарубежью;
- система верификации прогнозов TAF (выпускаемых синоптиками официальных АМСГ РФ и ближнего зарубежья) и AUTOTAF (выпускаемых сайтом Метеоцентр.Азия) - выявление ошибок, онлайн-сопоставление с фактической погодой METAR, автоматическое внесение коррективов в прогнозы при резком отклонении фактической погоды от прогноза, подсчёт оправдываемости прогнозов по элементам и в целом;
- система обработки, анализа и отображения авиаметеорологической информации для применения провайдерами метеорологической информации.


Погода Соболево - сегодня

Время (UTC), дата Ветер
(°,м/с) 
Видим.   Явления Облачность Т
(°С)
Тd
(°С)
f(%) Тe
(°С)
Pmin
(гПа)
dP
(гПа)
Po
(мм)
O2
(г/м3)
Тmin Tmax R s Состояние
почвы
06 20.01.17 050 (СВ) 20000 м    9/3 600 м средняя 
[Sc|Ac trans]
-11.1 -19.1 52 -13  1017.2  -0.3  760  321           
09 20.01.17 040 (СВ) 20000 м    10/0 средняя 
[Ac und]
-12 -18.7 57 -12  1017.7  0.6  761  322    -11       
12 20.01.17 050 (СВ) 20000 м    6/0 средняя 
[Ac As]
-16.8 -22.3 62 -21  1017.4  -0.4  761  328           
15 20.01.17 040 (СВ) 20000 м    3/0 средняя 
[Ac trans]
-19.1 -23.7 67 -22  1016.9  -0.5  760  331           
18 20.01.17 050 (СВ) 20000 м    3/0 верхняя 
[Ci fib]
-23.8 -26.8 76 -24  1017.1  0.1  760  337           
21 20.01.17 090 (В) 20000 м    3/0 верхняя 
[Ci fib]
-28.3 -31.8 72 -29  1016.6  -0.5  760  343  -28.9      78  равномерный
сухой снег
100% 
00 21.01.17 040 (СВ) 20000 м    3/0 верхняя 
[Ci fib]
-19.5 -24 67 -20  1016.5  760  331  -29.5         
03 21.01.17 360 (С) 20000 м    4/0 верхняя 
[Ci fib]
-14.2 -23.8 44 -14  1015.1  -1.3  759  324           
06 21.01.17 350 (С) 20000 м    6/0 верхняя 
[Ci fib]
-15.7 -23 53 -16  1014.5  -0.6  758  326           
09 21.01.17 010 (С) 20000 м    4/0 верхняя 
[Ci fib]
-16.4 -23.1 56 -17  1014.1  -0.4  758  327    -13.8       
12 21.01.17 070 (В) 20000 м    4/0 верхняя 
[Ci fib]
-21.2 -24.4 75 -24  1013.7  -0.4  758  333           
15 21.01.17 080 (В) 20000 м    4/0 верхняя 
[Ci fib]
-16.8 -21.2 69 -17  1012.6  -1  757  327           
18 21.01.17 310 (СЗ) 20000 м    4/0 верхняя 
[Ci fib]
-14.5 -18.8 70 -15  1011.2  -1.3  756  323           
21 21.01.17 360 (С) 20000 м    6/0 средняя, верхняя 
[Ac trans|Ci fib]
-14.2 -19.6 64 -14  1011.4  0.2  756  323  -21.4      78  равномерный
сухой снег
100% 
00 22.01.17 010 (С) 20000 м    8/4 600 м средняя 
[Sc|Ac trans]
-11 -19.4 50 -14  1011  -0.3  756  319           
03 22.01.17 310 (СЗ) 20000 м    4/3 600 м верхняя 
[Sc|Ci fib]
-9.6 -19.4 45 -11  1010.2  -0.8  755  317           
06 22.01.17 360 (С) 20000 м    3/3 600 м верхняя 
[Sc|Ci fib]
-13.1 -20.1 56 -13  1010.6  0.4  755  321           
09 22.01.17 060 (СВ) 20000 м    3/0 верхняя 
[Ci fib]
-22.4 -25.1 79 -25  1010.8  0.1  756  333    -8.4       
12 22.01.17 060 (СВ) 20000 м    3/0 верхняя 
[Ci fib]
-24.7 -27.8 75 -28  1010.7  0.1  755  336           
15 22.01.17 060 (СВ) 20000 м    3/0 верхняя 
[Ci fib]
-22.6 -25.6 76 -27  1010.6  755  334           
18 22.01.17 060 (СВ) 20000 м    3/0 верхняя 
[Ci fib]
-22.5 -25.6 76 -27  1010.6  755  333           
21 22.01.17 060 (СВ) 20000 м    3/0 верхняя 
[Ci fib]
-24.1 -27.1 76 -27  1010.8  0.1  755  336  -27.2      78  равномерный
сухой снег
100% 
00 23.01.17 050 (СВ) 20000 м    6/0 верхняя 
[Ci]
-19.7 -22.7 77 -22  1011.2  0.5  756  330           
03 23.01.17 060 (СВ) 20000 м    3/0 верхняя 
[Ci fib]
-11.4 -17.7 60 -11  1009.3  -1.8  755  319           
06 23.01.17 330 (СЗ) 20000 м    3/0 верхняя 
[Ci fib]
-14.1 -19.2 65 -14  1009  -0.3  754  322           
Время (UTC), дата Ветер
(°,м/с) 
Видим.   Явления Облачность Т
(°С)
Тd
(°С)
f(%) Тe
(°С)
Pmin
(гПа)
dP
(гПа)
Po
(мм)
O2
(г/м3)
Тmin Tmax R s Состояние
почвы

Для получения пояснительной информации подведите курсор к названию столбца.

ПОГОДА Соболево - архив

Всё, что Вы хотите узнать о погоде Соболево - удобно и подробно!

Выберите нужную дату (начиная с 1 января 2015* года) и нажмите кнопку "Найти".
Будут отображены архивные сводки погоды по пункту Соболево, начиная с указанной даты.


Отображать данные в формате CSV (для использования в таблицах Excel)


Внимание! Наш архив погоды предназначен исключительно для личного некоммерческого использования в познавательных целях. Если Вам необходимы официальные справки о состоянии погоды (для производственных, юридических, коммерческих и т.п. целей), обращайтесь в органы Росгидромета.

*Примечание: данная дата относится к архиву по метеостанциям СССР (Россия, СНГ, Балтия).
Архив по метеостанциям Зарубежной Европы и Азии (кроме Китая) хранится 10 дней, по другим регионам земного шара (Китай, Африка, Америка, Австралия, Океания) - 1 день.

Соболево - район местоположения метеостанции


Название, широта, долгота, высота метеостанции:
Соболево 54.30°ш. 155.93°д. 14 м над ур. моря [Российская Федерация]

Дополнительная информация

В oтличие oт бoльшинства пoгoдных сайтoв мы публикуем пoдрoбную метеoинфoрмацию в детальнoм прoфессиoнальнoм фoрмате.

Характеристики температуры и влажнoсти вoздуха измеряются на высoте 2 м в тени вдали oт зданий и деревьев.
Скoрoсть ветра измеряется на высoте 10 м (на урoвне рoста челoвека скoрoсть ветра ниже в 1.5-2 раза). Если метеoстанция нахoдится в гoрoде или в лесу, тo скoрoсть ветра занижена на 2-4 м/с пo сравнению с oткрытым местoм. Скoрoсть ветра над акватoриями крупных рек и oзёр, а также на вершинах хoлмoв на 2-5 м/с выше, чем в oбычных услoвиях.
Атмoсфернoе давление в разных тoчках местнoсти мoжет значительнo oтличаться oт давления на метеoстанции, в зависимoсти oт услoвий рельефа (при пoдъёме на 10 м давление пoнижается примернo на 1 мм рт.ст.).